[[{"header":{"parameterUnit":"m.s-1","parameterCategory":1,"la1":30.2991,"la2":30.254,"lo1":-89.0895,"lo2":-89.0444,"dy":0.0017,"dx":0.0017,"nx":28,"ny":28,"refTime":"2025-07-20T21:00:00:Z","depth":0,"parameterNumber":2,"parameterNumberName":"U-component_of_WINDS"},"data":[0,0,0,0,0,0,0,0,0,0,0,0,0,0,0,0,0,0,0,0,0,0,0,0,0,0,0,0,0,0,0,0,0,0,0,0,0,0,0,0,0,0,0,0,0,0,0,0,0,0,0,0,0,0,0,0,0,0,0.6729,0.673,0,0.6771,0.6771,0.6772,0.6807,0.6807,0.6808,0.6808,0.6851,0.6852,0.6853,0,0,0,0,0,0,0,0,0,0,0,0,0,0.668,0.668,0.6729,0.673,0.673,0.6771,0.6772,0.6772,0.6807,0.6807,0.6808,0.6808,0.6851,0.6852,0.6853,0,0,0,0,0,0,0,0,0,0,0,0,0,0.6709,0.6681,0.6729,0.6752,0.6755,0.6771,0.6772,0.6772,0.6807,0.6807,0.6808,0.6808,0.685,0.6852,0.6853,0.6849,0,0,0.6856,0.6857,0,0,0,0,0,0,0,0,0.6708,0.6711,0.6748,0.6751,0.6754,0.6784,0.677,0.6798,0.6807,0.6787,0.6808,0.6809,0.6828,0.6831,0.6838,0.6851,0.6853,0.6857,0.6857,0.6858,0.6858,0,0,0,0,0,0,0,0.6706,0.671,0.6746,0.6749,0.6752,0.6761,0.6766,0.6775,0.6804,0.6789,0.6791,0.6796,0.683,0.6837,0.6839,0.6853,0.6857,0.6858,0.6858,0.6859,0.6867,0.6866,0,0,0,0,0,0,0.67,0.6708,0.6744,0.6747,0.6732,0.6761,0.6767,0.6774,0.6804,0.6809,0.6795,0.6797,0.6835,0.6838,0.6841,0.684,0.6858,0.6859,0.686,0.6867,0.6867,0.6866,0,0,0,0,0,0,0.6699,0.6703,0.6743,0.6728,0.6734,0.6762,0.6769,0.6774,0.6781,0.6809,0.6814,0.6797,0.6835,0.6839,0.6847,0.6841,0.6859,0.6861,0.6868,0.6867,0.6866,0.6836,0,0,0,0,0,0,0.6697,0.6702,0.6701,0.6728,0.6734,0.6748,0.6769,0.6775,0.6783,0.6786,0.6812,0.6817,0.6836,0.6845,0.6848,0.6843,0.6861,0.6868,0.6867,0.6867,0.6837,0.6834,0.6831,0,0,0,0,0,0.6695,0.669,0.67,0.6705,0.6733,0.6747,0.6751,0.6773,0.6783,0.6782,0.68,0.6816,0.6841,0.6846,0.6849,0.6845,0.6869,0.6868,0.6867,0.6839,0.6835,0.6831,0,0,0,0,0,0,0.6662,0.6694,0.6706,0.6709,0.6725,0.6753,0.6753,0.6768,0.6781,0.6783,0.681,0.6816,0.6821,0.6833,0.6838,0.6843,0.6857,0.6857,0.6835,0.6831,0.6828,0.6825,0.6862,0,0,0,0,0,0.6655,0.6663,0.6691,0.6691,0.6699,0.6724,0.6731,0.6747,0.6764,0.6771,0.679,0.6806,0.6818,0.6825,0.6838,0.6839,0.6846,0.6838,0.6835,0.6832,0.6832,0.6835,0.6832,0.6862,0.6862,0.6862,0,0,0.664,0.6659,0.6663,0.6685,0.6699,0.6708,0.673,0.6738,0.6745,0.6772,0.6781,0.6795,0.6816,0.682,0.6824,0.6831,0.6825,0.6831,0.6828,0.683,0.6833,0.6831,0.6828,0.6862,0.6862,0.6862,0,0,0.6619,0.6633,0.6636,0.665,0.6671,0.6688,0.6689,0.6714,0.6725,0.6734,0.6756,0.6764,0.6784,0.6798,0.6807,0.6792,0.6808,0.6795,0.6779,0.6782,0.6779,0.6777,0.6773,0.6771,0.6794,0.6794,0.6794,0,0.6598,0.6612,0.6635,0.6642,0.6652,0.6678,0.6681,0.6693,0.6717,0.6724,0.6732,0.6758,0.6773,0.6782,0.6779,0.6785,0.6787,0.6792,0.6778,0.6776,0.6774,0.677,0.6768,0.6793,0.6793,0.6793,0.6793,0,0.6586,0.6596,0.6595,0.6618,0.6628,0.6633,0.6657,0.6664,0.6679,0.6695,0.6705,0.6724,0.6741,0.6744,0.6759,0.6756,0.676,0.6772,0.6787,0.6769,0.6766,0.6765,0.679,0.6791,0.6791,0.6792,0,0,0.6545,0.6581,0.6581,0.6592,0.6618,0.6625,0.6632,0.6649,0.6655,0.6671,0.6677,0.6693,0.6705,0.6716,0.6733,0.6735,0.6723,0.6747,0.6748,0.6743,0.6722,0.6713,0.6711,0.6733,0.6733,0.6733,0.6721,0,0.6528,0.6541,0.6563,0.6569,0.6579,0.6604,0.6609,0.6626,0.6641,0.6652,0.6669,0.668,0.6695,0.6702,0.6705,0.6723,0.6719,0.6724,0.674,0.674,0.6735,0.6709,0.6699,0.6687,0.6719,0.6719,0.6719,0,0.6511,0.6526,0.6533,0.6559,0.6564,0.6568,0.6586,0.6596,0.6615,0.6626,0.6639,0.6657,0.6665,0.6678,0.6691,0.6694,0.6702,0.6712,0.6712,0.6715,0.6729,0.6712,0.6683,0.6682,0.6717,0.6717,0.6717,0,0.6481,0.6503,0.651,0.6519,0.6549,0.6552,0.6565,0.6585,0.6594,0.661,0.6616,0.6632,0.6641,0.6654,0.6676,0.6683,0.6686,0.6701,0.6697,0.6696,0.6697,0.6697,0.667,0.67,0.67,0.67,0.67,0,0.6461,0.6464,0.6498,0.6502,0.6507,0.6532,0.6537,0.6552,0.657,0.6578,0.66,0.6608,0.6636,0.6647,0.6664,0.6672,0.6676,0.6686,0.6691,0.6684,0.6683,0.669,0.6692,0.67,0.67,0.67,0.67,0,0.6429,0.6451,0.6461,0.6489,0.6496,0.6499,0.6523,0.6529,0.6545,0.6556,0.656,0.6586,0.66,0.6623,0.6644,0.6655,0.6661,0.6668,0.6655,0.6658,0.6652,0.6653,0.663,0.6629,0.6659,0.6658,0.6658,0,0.6415,0.6418,0.6447,0.6454,0.6466,0.6477,0.6487,0.6512,0.6521,0.6544,0.6547,0.6563,0.6577,0.6598,0.662,0.6636,0.6644,0.6635,0.6647,0.6641,0.6645,0.6645,0.6646,0.6632,0.6632,0.6632,0.6631,0,0.6388,0.6399,0.6412,0.6429,0.644,0.6455,0.647,0.6475,0.6503,0.6512,0.6527,0.6538,0.6559,0.6575,0.6594,0.6608,0.6625,0.6627,0.6627,0.6622,0.6614,0.6619,0.6648,0.6628,0.6628,0.6629,0.6629,0.6629,0.6365,0.637,0.6391,0.6405,0.642,0.6434,0.6441,0.6459,0.6472,0.6491,0.6505,0.6519,0.6539,0.6567,0.658,0.6591,0.6599,0.6598,0.6598,0.6598,0.6596,0.6611,0.6595,0.6595,0.6595,0.6595,0.6595,0,0.6341,0.6356,0.6368,0.639,0.6401,0.6415,0.6434,0.6442,0.6454,0.6472,0.6485,0.6503,0.6518,0.6541,0.6558,0.6563,0.6571,0.6567,0.6568,0.6571,0.6588,0.6587,0.656,0.656,0.656,0.656,0.656,0.656,0.6329,0.6339,0.6352,0.6369,0.6384,0.6398,0.6407,0.6421,0.6435,0.6454,0.6467,0.6481,0.6501,0.652,0.6535,0.6542,0.6547,0.6541,0.655,0.6566,0.6569,0.6572,0.6571,0.6542,0.6542,0.6531,0.6531,0.6531]},{"header":{"parameterUnit":"m.s-1","parameterCategory":1,"la1":30.2991,"la2":30.254,"lo1":-89.0895,"lo2":-89.0444,"dy":0.0017,"dx":0.0017,"nx":28,"ny":28,"refTime":"2025-07-20T21:00:00:Z","depth":0,"parameterNumber":3,"parameterNumberName":"V-component_of_WINDS"},"data":[0,0,0,0,0,0,0,0,0,0,0,0,0,0,0,0,0,0,0,0,0,0,0,0,0,0,0,0,0,0,0,0,0,0,0,0,0,0,0,0,0,0,0,0,0,0,0,0,0,0,0,0,0,0,0,0,0,0,-0.1289,-0.1289,0,-0.1312,-0.1312,-0.1312,-0.13,-0.13,-0.1299,-0.1298,-0.1323,-0.1324,-0.1325,0,0,0,0,0,0,0,0,0,0,0,0,0,-0.1236,-0.1237,-0.1289,-0.1289,-0.1289,-0.1312,-0.1312,-0.1312,-0.13,-0.13,-0.1299,-0.1298,-0.1322,-0.1324,-0.1325,0,0,0,0,0,0,0,0,0,0,0,0,0,-0.1259,-0.1238,-0.1289,-0.1286,-0.1286,-0.1312,-0.1312,-0.1312,-0.1301,-0.13,-0.1299,-0.1298,-0.1322,-0.1324,-0.1325,-0.1355,0,0,-0.1331,-0.1332,0,0,0,0,0,0,0,0,-0.1258,-0.1261,-0.1286,-0.1286,-0.1286,-0.1302,-0.1302,-0.1327,-0.1301,-0.1295,-0.1298,-0.1297,-0.1317,-0.1319,-0.1325,-0.1356,-0.1357,-0.1331,-0.1332,-0.1333,-0.1334,0,0,0,0,0,0,0,-0.1256,-0.126,-0.1298,-0.1287,-0.1287,-0.1284,-0.1287,-0.1307,-0.1311,-0.1296,-0.1295,-0.1298,-0.1317,-0.1323,-0.1326,-0.1358,-0.1331,-0.1333,-0.1334,-0.1335,-0.1416,-0.1417,0,0,0,0,0,0,-0.1255,-0.1259,-0.1297,-0.1299,-0.127,-0.1286,-0.1288,-0.1298,-0.1311,-0.1312,-0.1298,-0.1297,-0.1321,-0.1324,-0.1327,-0.1364,-0.1333,-0.1335,-0.1336,-0.1415,-0.1416,-0.1418,0,0,0,0,0,0,-0.1254,-0.1258,-0.1296,-0.1279,-0.1283,-0.1288,-0.1299,-0.1299,-0.1306,-0.1313,-0.1313,-0.1305,-0.132,-0.1324,-0.1348,-0.1364,-0.1336,-0.1337,-0.1414,-0.1416,-0.1417,-0.1437,0,0,0,0,0,0,-0.1252,-0.1258,-0.1269,-0.1279,-0.1284,-0.1317,-0.13,-0.13,-0.1309,-0.1307,-0.1319,-0.132,-0.132,-0.1346,-0.135,-0.1366,-0.1339,-0.1413,-0.1415,-0.1417,-0.1435,-0.1439,-0.1443,0,0,0,0,0,-0.125,-0.1273,-0.1269,-0.1274,-0.1298,-0.1318,-0.1321,-0.1321,-0.131,-0.1322,-0.1326,-0.1319,-0.1362,-0.1348,-0.1353,-0.137,-0.1412,-0.1414,-0.1416,-0.1433,-0.1438,-0.1443,0,0,0,0,0,0,-0.1265,-0.1275,-0.127,-0.1297,-0.1307,-0.1316,-0.1331,-0.1326,-0.1339,-0.1337,-0.1336,-0.1339,-0.1364,-0.1369,-0.1355,-0.14,-0.1385,-0.1389,-0.1396,-0.1401,-0.1405,-0.1403,-0.134,0,0,0,0,0,-0.1271,-0.1287,-0.1294,-0.1317,-0.1323,-0.1326,-0.1335,-0.1333,-0.1344,-0.1348,-0.1354,-0.1365,-0.138,-0.1391,-0.1406,-0.1435,-0.1439,-0.1449,-0.1453,-0.1456,-0.146,-0.1478,-0.1483,-0.1426,-0.1426,-0.1425,0,0,-0.1285,-0.1292,-0.1301,-0.1321,-0.1328,-0.1345,-0.1329,-0.1347,-0.136,-0.1351,-0.1375,-0.138,-0.1391,-0.1419,-0.1432,-0.1424,-0.1476,-0.1459,-0.1462,-0.1464,-0.1481,-0.1486,-0.1491,-0.1427,-0.1427,-0.1427,0,0,-0.1318,-0.1324,-0.1345,-0.1353,-0.1364,-0.1367,-0.1372,-0.1382,-0.1385,-0.1409,-0.1402,-0.1418,-0.1444,-0.1454,-0.1462,-0.15,-0.1494,-0.1504,-0.1525,-0.1542,-0.1547,-0.1551,-0.1566,-0.1571,-0.1508,-0.1508,-0.1508,0,-0.1333,-0.1357,-0.1356,-0.1375,-0.1384,-0.1376,-0.1398,-0.1406,-0.1422,-0.1429,-0.142,-0.1454,-0.1461,-0.1492,-0.1502,-0.1508,-0.1515,-0.1504,-0.1546,-0.155,-0.1554,-0.1568,-0.1574,-0.1509,-0.1509,-0.1509,-0.1509,0,-0.1376,-0.1394,-0.1409,-0.1425,-0.1436,-0.1456,-0.1458,-0.1469,-0.1467,-0.1471,-0.1496,-0.1504,-0.1522,-0.1529,-0.1526,-0.1559,-0.1555,-0.1546,-0.1531,-0.1561,-0.1574,-0.1579,-0.1511,-0.151,-0.151,-0.151,0,0,-0.1419,-0.1435,-0.144,-0.1448,-0.1461,-0.1475,-0.1495,-0.1512,-0.1522,-0.1533,-0.1551,-0.1575,-0.1567,-0.1577,-0.1576,-0.1591,-0.1622,-0.1581,-0.1581,-0.1589,-0.1661,-0.1668,-0.1674,-0.1618,-0.1619,-0.162,-0.166,0,-0.1454,-0.1489,-0.1489,-0.1522,-0.1539,-0.1532,-0.155,-0.156,-0.1564,-0.158,-0.1584,-0.1601,-0.1589,-0.1595,-0.161,-0.1615,-0.1637,-0.1612,-0.1636,-0.1637,-0.1634,-0.1681,-0.1688,-0.1726,-0.1665,-0.1666,-0.1667,0,-0.1499,-0.1513,-0.1548,-0.1559,-0.1567,-0.1583,-0.1599,-0.1613,-0.1625,-0.1627,-0.1638,-0.1635,-0.1657,-0.164,-0.1671,-0.1654,-0.1664,-0.1668,-0.167,-0.1673,-0.1654,-0.1687,-0.1737,-0.1744,-0.1675,-0.1674,-0.1674,0,-0.1529,-0.1556,-0.158,-0.1587,-0.1601,-0.1613,-0.1619,-0.163,-0.1641,-0.1655,-0.1662,-0.1678,-0.1688,-0.1701,-0.1703,-0.169,-0.1734,-0.1718,-0.1737,-0.1738,-0.1748,-0.1747,-0.1802,-0.1752,-0.1752,-0.1752,-0.1752,0,-0.1569,-0.1591,-0.1594,-0.1609,-0.1634,-0.1634,-0.1659,-0.1664,-0.1674,-0.1691,-0.1686,-0.1702,-0.1703,-0.172,-0.1722,-0.1748,-0.1752,-0.1755,-0.1755,-0.1756,-0.1756,-0.1763,-0.1761,-0.1753,-0.1753,-0.1753,-0.1752,0,-0.1606,-0.1609,-0.1636,-0.1647,-0.1651,-0.1668,-0.1678,-0.1694,-0.1697,-0.1719,-0.1724,-0.173,-0.1749,-0.1753,-0.1775,-0.1777,-0.1808,-0.1805,-0.1804,-0.1804,-0.1825,-0.1823,-0.1887,-0.1896,-0.1839,-0.1839,-0.184,0,-0.1632,-0.1649,-0.1662,-0.1673,-0.168,-0.1698,-0.1709,-0.1709,-0.1721,-0.1737,-0.175,-0.177,-0.1785,-0.1817,-0.1824,-0.1842,-0.184,-0.1861,-0.1842,-0.1843,-0.1842,-0.1841,-0.1844,-0.1865,-0.1865,-0.1866,-0.1866,0,-0.1678,-0.1679,-0.1694,-0.1711,-0.1725,-0.1738,-0.1751,-0.176,-0.1762,-0.1776,-0.1796,-0.1808,-0.1832,-0.1852,-0.187,-0.1877,-0.1873,-0.1872,-0.1878,-0.1879,-0.1879,-0.1881,-0.1815,-0.1871,-0.187,-0.187,-0.187,-0.187,-0.1711,-0.1726,-0.1738,-0.1757,-0.1766,-0.1778,-0.1794,-0.18,-0.1816,-0.1836,-0.1835,-0.1858,-0.1871,-0.1894,-0.1903,-0.1921,-0.1914,-0.1922,-0.1925,-0.1927,-0.193,-0.1875,-0.1924,-0.1924,-0.1924,-0.1924,-0.1924,0,-0.1758,-0.1765,-0.1782,-0.18,-0.1815,-0.1809,-0.1823,-0.1836,-0.1856,-0.1868,-0.1884,-0.1908,-0.1927,-0.1936,-0.1955,-0.1968,-0.1966,-0.1973,-0.1973,-0.1975,-0.1934,-0.1928,-0.1974,-0.1974,-0.1974,-0.1974,-0.1974,-0.1974,-0.1784,-0.181,-0.1812,-0.1844,-0.1851,-0.1873,-0.1882,-0.1894,-0.1904,-0.1931,-0.1947,-0.1952,-0.1963,-0.1983,-0.2001,-0.2003,-0.2011,-0.2019,-0.202,-0.1982,-0.1977,-0.1972,-0.1967,-0.202,-0.202,-0.206,-0.206,-0.206]}]]